STARLINK-33568 (62779 NORAD) Tracking and Keplerian Element Data

This shows tracking and keplerian element data for the satellite.

Feedback or suggestion? Click here.




ElementValue
Catalog62779
NameSTARLINK-33568
Epoch Orbit324
Epoch Day35.25001157
Epoch Year2025
RAAN18.6225
Inclination53.16
Eccentricity0.0001111
Argument of Perigee76.3119
Mean Anonmoly226.5458
Mean Motion15.78014904
Decay Rate-0.01166002
L11 62779U 25015X 25035.25001157 -.01166002 00000+0 -75486-2 0 9999
L22 62779 53.1600 18.6225 0001111 76.3119 226.5458 15.78014904 3243



Live tracking and technical data element details for STARLINK-33568 (NORAD 62779). STARLINK-33568 can be tracked NOW for your location showing map with azimuth and elevation plus other details from your city location.







IsCatalogInMostPopularTable: catalog: 62779, numindb: 187
Update: records affected: 1



GetName: 62779 STARLINK-33568

Hit Count: updated at: Mon, 17 Nov 2025 19:10:17 GMT